This is the latest recevied weather packets stored in our database for station/object EA5JUX. If no packets are shown the sender has not sent any weather packets the latest 10 day(s).
| Time | Temp. | Humidity | Pressure | Rain* | Wind** | Luminosity | Snow |
|---|---|---|---|---|---|---|---|
| 1778256136 | 19.44° C | 65% | 1011.3 hPa | 0 mm | - | - | - |
| 1778255836 | 20° C | 65% | 1011.1 hPa | 0 mm | - | - | - |
| 1778255536 | 20° C | 65% | 1011.4 hPa | 0 mm | - | - | - |
| 1778255252 | 19.44° C | 66% | 1011.4 hPa | 0 mm | - | - | - |
| 1778254936 | 20° C | 64% | 1011.5 hPa | 0 mm | - | - | - |
| 1778254636 | 19.44° C | 64% | 1011.3 hPa | 0 mm | - | - | - |
| 1778254336 | 20° C | 62% | 1011.4 hPa | 0 mm | - | - | - |
| 1778254036 | 20° C | 64% | 1011.3 hPa | 0 mm | - | - | - |
| 1778253736 | 20° C | 64% | 1011.2 hPa | 0 mm | - | - | - |
| 1778253436 | 19.44° C | 65% | 1011.3 hPa | 0 mm | - | - | - |
| 1778253136 | 19.44° C | 68% | 1011.3 hPa | 0 mm | - | - | - |
| 1778252836 | 20° C | 65% | 1011.6 hPa | 0 mm | - | - | - |
| 1778252536 | 19.44° C | 66% | 1011.4 hPa | 0 mm | - | - | - |
| 1778252253 | 19.44° C | 66% | 1011.3 hPa | 0 mm | - | - | - |
| 1778251958 | 20° C | 65% | 1011.4 hPa | 0 mm | - | - | - |
| 1778251648 | 19.44° C | 64% | 1011.6 hPa | 0 mm | - | - | - |
| 1778251351 | 20° C | 66% | 1011.6 hPa | 0 mm | - | - | - |
| 1778251037 | 20° C | 66% | 1011.6 hPa | 0 mm | - | - | - |
| 1778250754 | 20° C | 67% | 1011.6 hPa | 0 mm | - | - | - |
| 1778250444 | 19.44° C | 67% | 1011.7 hPa | 0 mm | - | - | - |
| 1778250136 | 20° C | 67% | 1011.7 hPa | 0 mm | - | - | - |
| 1778249836 | 19.44° C | 67% | 1011.9 hPa | 0 mm | - | - | - |
| 1778249550 | 19.44° C | 67% | 1011.8 hPa | 0 mm | - | - | - |
| 1778249237 | 19.44° C | 67% | 1011.7 hPa | 0 mm | - | - | - |
| 1778248936 | 19.44° C | 67% | 1012 hPa | 0 mm | - | - | - |
* Rain latest hour (hover to see other rain measurements)
** Current wind speed in m/s (hover to see current wind gust speed)